Terug naar catalogus

STARLINK-32765

ActiefCommunicatieVLEO
NORAD 62747·PAYLOAD·🇺🇸 United States

Gelanceerd Jan 21, 2025 vanaf Cape Canaveral Space Force Station

Loading…

Volgende Passages (komende 24 uur)

TLE

VersSource: CelesTrak SupGP

Epoch: Sep 15, 2026, 03:16 UTC

1 62747C 25014N   26258.13659722  .00037158  00000+0  13459-2 0  2581
2 62747  42.9997 164.5705 0001186 273.2258 312.2112 15.27558561    19

Volg STARLINK-32765 in realtime met AllMySat

Download on the App Store